Location: Observatoire
(46.1952°N, 5.3391°E)
Time: 10:21:26
(UTC+01:00)

A-11 Canister half - All Passes

Search period start: 16 February 2026 00:00
Search period end: 26 February 2026 00:00
Orbit: 1512 x 1687 km, 47.2° (Epoch: 15 February)

Date Brightness Start Highest point End Pass type
(mag) Time Alt. Az. Time Alt. Az. Time Alt. Az.
16 Feb - 00:41:58 10° W 00:52:05 85° N 01:01:50 10° E night (unlit)
16 Feb - 02:47:22 10° WNW 02:57:18 80° SSW 03:06:49 10° ESE visible
16 Feb - 04:52:45 10° WNW 05:01:25 38° SW 05:09:48 10° SSE visible
16 Feb - 20:12:17 10° S 20:20:13 27° SE 20:28:03 10° E visible
16 Feb - 22:13:58 10° SW 22:23:59 66° SSE 22:33:44 10° ENE visible
17 Feb - 00:18:51 10° W 00:28:59 85° N 00:38:47 10° E visible
17 Feb - 02:24:16 10° WNW 02:34:14 82° SSW 02:43:47 10° ESE visible
17 Feb - 04:29:37 10° WNW 04:38:27 41° SW 04:46:58 10° SSE visible
17 Feb - 19:49:34 10° S 19:57:15 25° SE 20:04:51 10° E visible
17 Feb - 21:50:58 10° SW 22:00:56 64° SSE 22:10:41 10° ENE visible
17 Feb - 23:55:44 10° W 00:05:54 86° N 00:15:44 10° E visible
18 Feb - 02:01:11 10° WNW 02:11:11 84° SSW 02:20:47 10° ESE visible
18 Feb - 04:06:30 10° WNW 04:15:29 43° SW 04:24:08 10° SSE visible
18 Feb - 06:15:43 10° WSW 06:18:14 11° WSW 06:20:42 10° SW visible
18 Feb - 19:26:52 10° S 19:34:17 24° SE 19:41:37 10° E visible
18 Feb - 21:27:57 10° SW 21:37:54 61° SSE 21:47:37 10° ENE visible
18 Feb - 23:32:37 10° W 23:42:48 87° N 23:52:40 10° E visible
19 Feb - 01:38:03 10° WNW 01:48:07 86° SSW 01:57:45 10° ESE visible
19 Feb - 03:43:23 10° WNW 03:52:29 45° SW 04:01:17 10° SSE visible
19 Feb - 05:51:44 10° W 05:55:20 13° WSW 05:58:53 10° SW visible
19 Feb - 19:04:13 10° S 19:11:19 22° SE 19:18:22 10° E visible
19 Feb - 21:04:57 10° SW 21:14:51 59° SSE 21:24:33 10° ENE visible
19 Feb - 23:09:30 10° W 23:19:43 88° N 23:29:36 10° E visible
20 Feb - 01:14:57 10° WNW 01:25:02 87° SSW 01:34:43 10° ESE night (unlit)
20 Feb - 03:20:15 10° WNW 03:29:30 48° SW 03:38:24 10° SSE visible
20 Feb - 05:28:02 10° W 05:32:26 14° WSW 05:36:46 10° SSW visible
20 Feb - 18:41:37 10° S 18:48:22 20° SE 18:55:05 10° E visible
20 Feb - 20:41:57 10° SW 20:51:48 57° SSE 21:01:29 10° ENE visible
20 Feb - 22:46:24 10° WSW 22:56:37 88° N 23:06:33 10° E visible
21 Feb - 00:51:51 10° WNW 01:01:58 89° SSW 01:11:41 10° ESE visible
21 Feb - 02:57:08 10° WNW 03:06:30 50° SW 03:15:32 10° SE visible
21 Feb - 05:04:29 10° W 05:09:31 16° WSW 05:14:29 10° SSW visible
21 Feb - 18:19:03 10° SSE 18:25:25 19° SE 18:31:45 10° E daylight
21 Feb - 20:18:59 10° SW 20:28:46 54° SE 20:38:24 10° ENE visible
21 Feb - 22:23:18 10° WSW 22:33:31 90° NNW 22:43:29 10° E visible
22 Feb - 00:28:45 10° W 00:38:53 90° WNW 00:48:39 10° ESE visible
22 Feb - 02:34:01 10° WNW 02:43:30 53° SW 02:52:38 10° SE visible
22 Feb - 04:41:01 10° W 04:46:37 17° SW 04:52:06 10° SSW visible
22 Feb - 17:56:33 10° SSE 18:02:29 17° SE 18:08:23 10° E daylight
22 Feb - 19:56:02 10° SW 20:05:44 52° SE 20:15:20 10° ENE visible
22 Feb - 22:00:12 10° WSW 22:10:26 89° SSE 22:20:25 10° E visible
23 Feb - 00:05:38 10° W 00:15:48 89° NNE 00:25:36 10° ESE visible
23 Feb - 02:10:55 10° WNW 02:20:30 55° SW 02:29:43 10° SE night (unlit)
23 Feb - 04:17:38 10° W 04:23:42 19° SW 04:29:39 10° SSW visible
23 Feb - 17:34:07 10° SSE 17:39:32 16° SE 17:44:57 10° E daylight
23 Feb - 19:33:05 10° SSW 19:42:43 50° SE 19:52:15 10° ENE visible
23 Feb - 21:37:05 10° WSW 21:47:21 88° SSE 21:57:21 10° ENE visible
23 Feb - 23:42:30 10° W 23:52:43 88° NNE 00:02:33 10° E visible
24 Feb - 01:47:48 10° WNW 01:57:28 58° SSW 02:06:47 10° SE night (unlit)
24 Feb - 03:54:17 10° W 04:00:47 20° SW 04:07:08 10° S night (unlit)
24 Feb - 17:11:47 10° SSE 17:16:36 15° ESE 17:21:25 10° E daylight
24 Feb - 19:10:10 10° SSW 19:19:41 47° SE 19:29:09 10° ENE visible
24 Feb - 21:14:00 10° WSW 21:24:15 86° SSE 21:34:17 10° ENE visible
24 Feb - 23:19:24 10° W 23:29:37 87° N 23:39:29 10° E visible
25 Feb - 01:24:42 10° WNW 01:34:28 60° SSW 01:43:51 10° SE visible
25 Feb - 03:30:59 10° W 03:37:51 22° SW 03:44:34 10° S night (unlit)
25 Feb - 16:49:35 10° SSE 16:53:41 13° ESE 16:57:46 10° E daylight
25 Feb - 18:47:14 10° SSW 18:56:40 45° SE 19:06:03 10° ENE visible
25 Feb - 20:50:55 10° WSW 21:01:10 85° SSE 21:11:13 10° ENE visible
25 Feb - 22:56:18 10° W 23:06:31 86° N 23:16:26 10° E visible
